Regional Weather Roundup
Issued by NWS

Home | Current Version | Previous Version | Text Only | Print | Product List | Glossary Off
Versions: 1 2 3 4 5 6 7 8 9 10 11 12 13 14 15 16 17 18 19 20 21 22 23 24 25 26 27 28 29 30 31 32 33 34 35 36 37 38 39 40 41 42 43 44 45 46 47 48 49 50

000
ASUS45 KBOU 260707
RWRCO

WEATHER ROUNDUP FOR COLORADO
NATIONAL WEATHER SERVICE DENVER/BOULDER CO
100 AM MDT SAT JUL 26 2014

NOTE: "FAIR" INDICATES FEW OR NO CLOUDS BELOW 12000 FEET WITH NO
SIGNIFICANT WEATHER AND/OR OBSTRUCTIONS TO VISIBILITY.

COZ001>005-013-030-031-260800-
...NORTHWEST COLORADO...

CITY           SKY/WX    TMP DP  RH WIND       PRES   REMARKS
CRAIG          MOCLDY    60  49  66 NE5       30.22R
HAYDEN         MOCLDY    64  45  48 SE12      30.25S
MEEKER         MOCLDY    61  52  72 NE8       30.24S
MOUNT WERNER   NOT AVBL
STEAMBOAT SPGS PTCLDY    58  50  76 NW7       30.28S
WALDEN         CLEAR     50  43  76 E8        30.37S
$$

COZ006>008-011-260800-
...WEST CENTRAL VALLEYS...

CITY           SKY/WX    TMP DP  RH WIND       PRES   REMARKS
GRAND JUNCTION PTCLDY    70  54  56 E12       30.10R
MONTROSE       CLEAR     71  51  49 SE3       30.21R
EAGLE          CLEAR     57  50  77 E6        30.31S
RIFLE          PTCLDY    67  48  50 SE9       30.19R
DELTA          CLEAR     71  50  47 CALM      30.16R
NUCLA          CLEAR     70  46  43 E6        30.25R
$$

COZ017>023-064>068-260800-
...SOUTHWEST COLORADO...

CITY           SKY/WX    TMP DP  RH WIND       PRES   REMARKS
DURANGO        PTCLDY    66  46  48 CALM      30.25R
CORTEZ         PTCLDY    66  48  52 NE5       30.21R
PAGOSA SPRINGS PTCLDY    64  46  51 CALM      30.34S
TELLURIDE      CLEAR     57  46  67 E6        30.47R
WOLF CREEK PAS NOT AVBL
$$

COZ009-010-012-014-032>034-037-058>063-260800-
...CENTRAL COLORADO...

CITY           SKY/WX    TMP DP  RH WIND       PRES   REMARKS
ASPEN          CLEAR     54  47  77 SW7       30.37R
BUENA VISTA    CLEAR     57  49  73 W8        30.39R
COPPER MTN     CLEAR     54  41  62 W10       30.69S
BERTHOUD PASS  FAIR      46  32  57 W21G32    30.71S
COTTONWOOD PAS CLEAR     61  45  55 W7        30.52R
GUNNISON       PTCLDY    55  48  76 E3        30.41R
KREMMLING      PTCLDY    54  50  87 CALM      30.37S
LEADVILLE      CLEAR     45  43  93 E3        30.53S
MONARCH PASS   MOCLDY    50  41  71 W18       30.78S
SALIDA         CLEAR    N/A N/A N/A W5        30.44R
SUNLIGHT       PTCLDY    55  43  62 CALM      30.61R
WILKERSON PASS NOT AVBL
$$

COZ069>075-260800-
...SAN LUIS VALLEY/SANGRE DE CRISTO MOUNTAINS...

CITY           SKY/WX    TMP DP  RH WIND       PRES   REMARKS
ALAMOSA        PTCLDY    55  49  80 S6        30.34R
LA VETA PASS   NOT AVBL
SAGUACHE       PTCLDY    59  50  72 NW12      30.38S
$$

COZ035-036-038>040-260800-
...NORTHERN COLORADO FRONT RANGE...

CITY           SKY/WX    TMP DP  RH WIND       PRES   REMARKS
DENVER INTL AP PTCLDY    68  54  60 SW13      30.08F
DMNS CITY PARK   N/A     69  53  57 S10       30.08F
AURORA         PTCLDY    67  54  62 SW13      30.12F
FRONT RANGE AP NOT AVBL
ERIE MUNI ARPT CLEAR     69  48  47 S6        30.06F
BOULDER MUN AP CLEAR     77  43  29 S5        30.06F
CENTENNIAL     PTCLDY    68  51  54 SW9       30.14F
BROOMFIELD     CLEAR     68  50  52 CALM      30.11F
FORT COLLINS   PTCLDY    66  50  55 NW6       30.06S
LONGMONT       PTCLDY    65  52  63 CALM      30.07S
$$

COZ041-046-047-076>085-087-088-260800-
...PIKES PEAK/PALMER DIVIDE AND SOUTHERN FOOTHILLS...

CITY           SKY/WX    TMP DP  RH WIND       PRES   REMARKS
COLO. SPRINGS  PTCLDY    68  52  56 N3        30.20S
A. F. ACADEMY  CLEAR     60  52  73 E5        30.21F
ELLICOTT       PTCLDY    62  55  77 CALM      30.18S
FALCON         PTCLDY    64  48  57 W10       30.25S
FORT CARSON    PTCLDY    66  53  63 N8        30.17S
LIMON          CLEAR     60  53  77 N6        30.11R
MONUMENT HILL  NOT AVBL
TRINIDAD       PTCLDY    68  54  60 W9        30.17F
$$

COZ042>045-048>051-090-091-260800-
...NORTHEAST COLORADO...

CITY           SKY/WX    TMP DP  RH WIND       PRES   REMARKS
GREELEY ARPT   CLEAR     64  52  63 N3        30.03F
AKRON          PTCLDY    73  50  44 E3        30.04R
BURLINGTON     CLOUDY    68  60  75 S7        30.00F
WRAY             N/A     77  59  53 S3        29.96F
STERLING       PTCLDY    66  61  82 CALM      29.97F
HOLYOKE        CLEAR     70  63  78 S6        29.95S
FORT MORGAN    PTCLDY    67  56  70 S3        30.04S
$$

COZ086-089-092>099-260800-
...SOUTHEAST COLORADO...

CITY           SKY/WX    TMP DP  RH WIND       PRES   REMARKS
PUEBLO         PTCLDY    69  62  78 NW5       30.08F
LA JUNTA       PTCLDY    73  60  63 SW7       30.03F
LAMAR          MOCLDY    70  65  84 W7        29.98R
SPRINGFIELD      N/A     74  59  59 W6        30.04R
$$


USA.gov is the U.S. government's official web portal to all federal, state and local government web resources and services.